Weather History for KPRO - November, 2011

Change the Weather History Date:

Thursday, November 10, 2011

  Actual Average (WUND) Record (WUND)
Temperature  
Mean Temperature 36 °F -  
Max Temperature 42 °F - - (-1)
Min Temperature 30 °F - - (-1)
Degree Days  
Heating Degree Days 29    
Moisture  
Dew Point 25 °F    
Average Humidity 67    
Maximum Humidity 86    
Minimum Humidity 42    
Precipitation  
Precipitation 0.00 in - - ()
Sea Level Pressure  
Sea Level Pressure 30.15 in    
Wind  
Wind Speed 14 mph (West)    
Max Wind Speed 21 mph    
Max Gust Speed 26 mph    
Visibility 10 miles    
Events      
Averages and records for this station are not official NWS values.
T = Trace of Precipitation, MM = Missing Value Source: NWS Daily Summary

Daily Weather History Graph

Daily Weather History Graph

Search for Another Location

Airport or City:

Trip Planner

Search our weather history database for the weather conditions in past years. The results will help you decide how hot, cold, wet, or windy it might be!

Date:

Astronomy

Nov. 10, 2011 Rise Set
Actual Time 6:59 AM CST 5:00 PM CST
Civil Twilight 6:30 AM CST 5:30 PM CST
Nautical Twilight 5:56 AM CST 6:03 PM CST
Astronomical Twilight 5:24 AM CST 6:36 PM CST
Moon 4:48 PM CST (11/10) 6:53 AM CST (11/10)
Length of Visible Light 11h 00m
Length of Day
10h 01m
Full, 100% of the Moon is Illuminated
Nov 10
Full
Nov 10
Full
Nov 18
Last Quarter
Nov 25
New
Dec 2
First Quarter

Hourly Weather History & Observations

Time (CST) Temp. Windchill Dew Point Humidity Pressure Visibility Wind Dir Wind Speed Gust Speed Precip Events Conditions
12:15 AM 33.8 °F 24.3 °F 24.8 °F 70% 30.15 in 10.0 mi West 13.8 mph - N/A   Clear
12:35 AM 32.0 °F 22.5 °F 26.6 °F 80% 30.15 in 10.0 mi West 12.7 mph - N/A   Clear
12:55 AM 32.0 °F 22.1 °F 26.6 °F 80% 30.14 in 10.0 mi West 13.8 mph - N/A   Clear
1:15 AM 32.0 °F 22.5 °F 26.6 °F 80% 30.14 in 10.0 mi West 12.7 mph - N/A   Clear
1:35 AM 32.0 °F 21.6 °F 24.8 °F 75% 30.14 in 10.0 mi West 15.0 mph - N/A   Clear
1:55 AM 32.0 °F 23.0 °F 24.8 °F 75% 30.14 in 10.0 mi West 11.5 mph 20.7 mph N/A   Clear
2:15 AM 33.8 °F 23.9 °F 24.8 °F 70% 30.14 in 10.0 mi West 15.0 mph - N/A   Clear
2:35 AM 32.0 °F 22.1 °F 24.8 °F 75% 30.14 in 10.0 mi West 13.8 mph 19.6 mph N/A   Clear
3:15 AM 32.0 °F 21.2 °F 23.0 °F 69% 30.14 in 10.0 mi West 16.1 mph 25.3 mph N/A   Clear
3:35 AM 32.0 °F 21.2 °F 23.0 °F 69% 30.14 in 10.0 mi West 16.1 mph - N/A   Clear
3:55 AM 32.0 °F 21.2 °F 23.0 °F 69% 30.14 in 10.0 mi West 16.1 mph - N/A   Clear
4:15 AM 32.0 °F 21.2 °F 23.0 °F 69% 30.14 in 10.0 mi West 16.1 mph - N/A   Clear
4:35 AM 32.0 °F 20.5 °F 23.0 °F 69% 30.13 in 10.0 mi West 18.4 mph 23.0 mph N/A   Clear
4:55 AM 32.0 °F 22.1 °F 23.0 °F 69% 30.14 in 10.0 mi West 13.8 mph 23.0 mph N/A   Clear
5:15 AM 32.0 °F 21.6 °F 23.0 °F 69% 30.14 in 10.0 mi West 15.0 mph - N/A   Clear
5:55 AM 30.2 °F 18.9 °F 23.0 °F 75% 30.15 in 10.0 mi West 16.1 mph 21.9 mph N/A   Clear
6:15 AM 30.2 °F 18.5 °F 23.0 °F 75% 30.15 in 10.0 mi West 17.3 mph 21.9 mph N/A   Clear
6:35 AM 30.2 °F 18.9 °F 23.0 °F 75% 30.15 in 10.0 mi West 16.1 mph 20.7 mph N/A   Clear
6:55 AM 30.2 °F 19.3 °F 23.0 °F 75% 30.16 in 10.0 mi West 15.0 mph - N/A   Clear
7:15 AM 30.2 °F 19.8 °F 23.0 °F 75% 30.17 in 10.0 mi West 13.8 mph 19.6 mph N/A   Clear
7:35 AM 30.2 °F 18.9 °F 23.0 °F 75% 30.18 in 10.0 mi West 16.1 mph - N/A   Clear
7:55 AM 30.2 °F 18.9 °F 23.0 °F 75% 30.19 in 10.0 mi West 16.1 mph 23.0 mph N/A   Clear
8:35 AM 32.0 °F 20.8 °F 24.8 °F 75% 30.20 in 10.0 mi WNW 17.3 mph 21.9 mph N/A   Clear
8:55 AM 32.0 °F 20.5 °F 24.8 °F 75% 30.20 in 10.0 mi WNW 18.4 mph 26.5 mph N/A   Clear
9:15 AM 32.0 °F 21.6 °F 24.8 °F 75% 30.20 in 10.0 mi WNW 15.0 mph 24.2 mph N/A   Clear
9:35 AM 33.8 °F 23.2 °F 24.8 °F 70% 30.20 in 10.0 mi WNW 17.3 mph 21.9 mph N/A   Clear
9:55 AM 33.8 °F 24.3 °F 26.6 °F 75% 30.20 in 10.0 mi WNW 13.8 mph 19.6 mph N/A   Clear
10:15 AM 35.6 °F 26.2 °F 26.6 °F 70% 30.20 in 10.0 mi WNW 15.0 mph - N/A   Clear
10:35 AM 35.6 °F 26.6 °F 26.6 °F 70% 30.20 in 10.0 mi WNW 13.8 mph - N/A   Clear
10:55 AM 37.4 °F 29.3 °F 26.6 °F 65% 30.20 in 10.0 mi WNW 12.7 mph 23.0 mph N/A   Clear
11:15 AM 37.4 °F 28.2 °F 26.6 °F 65% 30.20 in 10.0 mi West 16.1 mph 20.7 mph N/A   Clear
11:35 AM 39.2 °F 31.2 °F 26.6 °F 61% 30.19 in 10.0 mi WNW 13.8 mph 21.9 mph N/A   Clear
11:55 AM 39.2 °F 30.5 °F 26.6 °F 61% 30.17 in 10.0 mi West 16.1 mph 23.0 mph N/A   Clear
12:15 PM 39.2 °F 31.6 °F 26.6 °F 61% 30.17 in 10.0 mi WNW 12.7 mph - N/A   Clear
12:35 PM 41.0 °F 33.9 °F 26.6 °F 57% 30.17 in 10.0 mi WNW 12.7 mph 20.7 mph N/A   Clear
12:55 PM 41.0 °F 33.9 °F 26.6 °F 57% 30.16 in 10.0 mi WNW 12.7 mph 26.5 mph N/A   Clear
1:15 PM 42.8 °F 35.1 °F 26.6 °F 53% 30.15 in 10.0 mi West 16.1 mph 25.3 mph N/A   Clear
1:35 PM 42.8 °F 35.8 °F 24.8 °F 49% 30.15 in 10.0 mi WNW 13.8 mph 23.0 mph N/A   Clear
1:55 PM 42.8 °F 36.2 °F 26.6 °F 53% 30.15 in 10.0 mi WNW 12.7 mph 19.6 mph N/A   Clear
2:15 PM 42.8 °F 35.1 °F 23.0 °F 46% 30.14 in 10.0 mi West 16.1 mph 20.7 mph N/A   Clear
2:35 PM 42.8 °F 35.1 °F 21.2 °F 42% 30.14 in 10.0 mi WNW 16.1 mph 20.7 mph N/A   Clear
2:55 PM 42.8 °F 34.0 °F 23.0 °F 46% 30.14 in 10.0 mi West 20.7 mph 24.2 mph N/A   Clear
3:15 PM 42.8 °F 35.1 °F 23.0 °F 46% 30.14 in 10.0 mi West 16.1 mph 19.6 mph N/A   Clear
3:35 PM 42.8 °F 35.1 °F 21.2 °F 42% 30.14 in 10.0 mi West 16.1 mph 19.6 mph N/A   Clear
3:55 PM 42.8 °F 35.1 °F 23.0 °F 46% 30.14 in 10.0 mi West 16.1 mph 20.7 mph N/A   Clear
4:15 PM 41.0 °F 34.3 °F 21.2 °F 45% 30.13 in 10.0 mi West 11.5 mph 19.6 mph N/A   Clear
4:35 PM 41.0 °F 34.3 °F 21.2 °F 45% 30.13 in 10.0 mi West 11.5 mph - N/A   Clear
4:55 PM 37.4 °F 30.8 °F 24.8 °F 60% 30.12 in 10.0 mi West 9.2 mph - N/A   Clear
5:15 PM 33.8 °F 28.6 °F 26.6 °F 75% 30.11 in 10.0 mi West 5.8 mph - N/A   Clear
5:35 PM 32.0 °F 25.6 °F 26.6 °F 80% 30.11 in 10.0 mi WSW 6.9 mph - N/A   Clear
5:55 PM 32.0 °F 24.8 °F 26.6 °F 80% 30.11 in 10.0 mi WSW 8.1 mph - N/A   Clear
6:15 PM 32.0 °F 25.6 °F 26.6 °F 80% 30.10 in 10.0 mi WSW 6.9 mph - N/A   Clear
6:35 PM 32.0 °F 24.8 °F 24.8 °F 75% 30.09 in 10.0 mi WSW 8.1 mph - N/A   Clear
6:55 PM 30.2 °F 24.3 °F 24.8 °F 80% 30.09 in 10.0 mi WSW 5.8 mph - N/A   Clear
7:15 PM 32.0 °F 25.6 °F 24.8 °F 75% 30.09 in 10.0 mi WSW 6.9 mph - N/A   Clear
7:35 PM 32.0 °F 25.6 °F 24.8 °F 75% 30.09 in 10.0 mi SW 6.9 mph - N/A   Clear
7:55 PM 32.0 °F 25.6 °F 23.0 °F 69% 30.09 in 10.0 mi WSW 6.9 mph - N/A   Clear
8:15 PM 30.2 °F 24.3 °F 23.0 °F 75% 30.09 in 10.0 mi SW 5.8 mph - N/A   Clear
8:35 PM 32.0 °F 26.4 °F 23.0 °F 69% 30.08 in 10.0 mi SW 5.8 mph - N/A   Clear
8:55 PM 30.2 °F 25.4 °F 26.6 °F 86% 30.09 in 10.0 mi South 4.6 mph - N/A   Clear
9:15 PM 32.0 °F 28.7 °F 26.6 °F 80% 30.08 in 10.0 mi South 3.5 mph - N/A   Clear
9:35 PM 32.0 °F 26.4 °F 26.6 °F 80% 30.07 in 10.0 mi South 5.8 mph - N/A   Clear
9:55 PM 32.0 °F 26.4 °F 26.6 °F 80% 30.08 in 10.0 mi South 5.8 mph - N/A   Clear
10:15 PM 32.0 °F 25.6 °F 26.6 °F 80% 30.07 in 10.0 mi South 6.9 mph - N/A   Clear
10:35 PM 32.0 °F 25.6 °F 26.6 °F 80% 30.06 in 10.0 mi SSW 6.9 mph - N/A   Clear
10:55 PM 32.0 °F 25.6 °F 26.6 °F 80% 30.04 in 10.0 mi South 6.9 mph - N/A   Clear
11:15 PM 32.0 °F 26.4 °F 26.6 °F 80% 30.04 in 10.0 mi SSE 5.8 mph - N/A   Clear
11:35 PM 32.0 °F 25.6 °F 26.6 °F 80% 30.03 in 10.0 mi South 6.9 mph - N/A   Clear
11:55 PM 32.0 °F 25.6 °F 26.6 °F 80% 30.02 in 10.0 mi SSE 6.9 mph - N/A   Clear